Overview Statistics Trail Chart Weather Telemetry Raw packets
 

This is the latest recevied weather packets stored in our database for station/object N1JOV-7. If no packets are shown the sender has not sent any weather packets the latest 10 day(s).

<< 32 33 34 35 36 37 38 >>
Time Temp. Humidity Pressure Rain* Wind** Luminosity Snow
1788145862 15.56° C 93% 1017.4 hPa 0 mm - - -
1788145262 16.11° C 92% 1017 hPa 0.76 mm - - -
1788144662 16.11° C 92% 1017.3 hPa 0 mm - - -
1788144061 16.11° C 91% 1017.2 hPa 0 mm - - -
1788143461 16.11° C 90% 1017.2 hPa 0 mm - - -
1788142861 16.67° C 89% 1017.5 hPa 0 mm - - -
1788142261 16.67° C 89% 1017.8 hPa 0 mm - - -
1788141661 16.67° C 88% 1017.7 hPa 0 mm - - -
1788141062 17.78° C 86% 1017.6 hPa 0 mm - - -
1788140462 19.44° C 82% 1017.4 hPa 0 mm - - -
1788139862 19.44° C 83% 1016 hPa 0 mm - - -
1788139262 19.44° C 83% 1015.7 hPa 0 mm - - -
1788138662 20° C 82% 1015.7 hPa 0 mm - - -
1788138062 20° C 81% 1015.8 hPa 0 mm - - -
1788137461 20° C 80% 1015.7 hPa 0 mm - - -
1788136862 20.56° C 79% 1015.5 hPa 0 mm - - -
1788136261 21.11° C 77% 1015.5 hPa 0 mm - - -
1788135661 21.11° C 76% 1015.6 hPa 0 mm - - -
1788135061 21.67° C 74% 1015.4 hPa 0 mm - - -
1788134462 21.67° C 73% 1015.2 hPa 0 mm - - -
1788133862 21.67° C 73% 1015 hPa 0 mm - - -
1788133262 21.67° C 73% 1015 hPa 0 mm - - -
1788132662 21.67° C 74% 1015.1 hPa 0 mm - - -
1788132062 21.67° C 74% 1014.9 hPa 0 mm - - -
1788131471 22.22° C 74% 1015.1 hPa 0 mm - - -

* Rain latest hour (hover to see other rain measurements)
** Current wind speed in m/s (hover to see current wind gust speed)